Effective Sunday, March 17, 2024, the National Weather Service National Data Buoy Center will discontinue its Dial-A-Buoy Interactive Voice Response system. For more information, see Service Change Notice 24-06 (PDF).

Station OBLA1 - 8737048 - Mobile State Docks, AL Image indicating link to RSS feed of recent meteorological observations for station OBLA1


Conditions at OBLA1 as of
(1:48 pm CST)
1948 GMT on 02/27/2024:
     

Click on the graph icon in the table below to see a time series plot of the last five days of that observation.

5-day plot - Atmospheric Pressure Atmospheric Pressure (PRES):29.99 in
5-day plot - Air Temperature Air Temperature (ATMP): 66.9 °F
5-day plot - Water Temperature Water Temperature (WTMP): 59.0 °F
NOS Water Level Observation Network Water Level
Previous observations
TIME
(CST)
5-day plot - Wind Direction
WDIR
 
5-day plot - Wind Speed
WSPD
kts
5-day plot - Wind Gust
GST
kts
5-day plot - Wave Height
WVHT
ft
5-day plot - Dominant Wave Period
DPD
sec
5-day plot - Average Wave Period
APD
sec
5-day plot - Mean Wave Direction
MWD
 
5-day plot - Atmospheric Pressure
PRES
in
5-day plot - Pressure Tendency
PTDY
in
5-day plot - Air Temperature
ATMP
°F
5-day plot - Water Temperature
WTMP
°F
5-day plot - Dew Point
DEWP
°F
5-day plot - Salinity
SAL
psu
5-day plot - Visibility
VIS
nmi
5-day plot - Tide (above MLLW)
TIDE
ft
2024-02-27 01:42 pm-------30.00- 67.3 59.0----
2024-02-27 01:36 pm-------30.00- 68.0 59.0----
2024-02-27 01:30 pm-------29.99- 68.2 59.0----
2024-02-27 01:24 pm-------29.99- 68.2 59.0----
2024-02-27 01:18 pm-------30.00- 67.5 59.0----
2024-02-27 01:12 pm-------30.01- 67.5 59.0----
2024-02-27 01:06 pm-------30.01- 67.6 59.0----
2024-02-27 01:00 pm-------30.01-0.01 67.5 59.0----
2024-02-27 12:54 pm-------30.01- 68.0 59.0----
2024-02-27 12:48 pm-------30.01- 68.0 59.0----
2024-02-27 12:42 pm-------30.01- 68.2 59.0----
2024-02-27 12:36 pm-------30.02- 67.5 59.2----
2024-02-27 12:30 pm-------30.02- 67.3 59.0----
2024-02-27 12:24 pm-------30.02- 67.6 58.8----
2024-02-27 12:18 pm-------30.02- 67.8 58.8----
2024-02-27 12:12 pm-------30.02- 66.9 58.8----
2024-02-27 12:06 pm-------30.02- 66.9 58.8----
2024-02-27 12:00 pm-------30.02+0.01 67.6 58.8----
2024-02-27 11:54 am-------30.03- 67.1 58.8----
2024-02-27 11:48 am-------30.03- 67.5 58.8----
2024-02-27 11:42 am-------30.03- 68.5 58.8----
2024-02-27 11:36 am-------30.03- 70.3 58.6----
2024-02-27 11:30 am-------30.03- 73.0 58.8----
2024-02-27 11:24 am-------30.04- 71.4 58.8----
2024-02-27 11:18 am-------30.04- 73.2 58.8----
2024-02-27 11:12 am-------30.03- 73.6 58.8----
2024-02-27 11:06 am-------30.03- 73.9 58.6----
2024-02-27 11:00 am-------30.03+0.02 73.6 58.6----
2024-02-27 10:54 am-------30.03- 73.4 58.6----
2024-02-27 10:48 am-------30.03- 73.6 58.6----
2024-02-27 10:42 am-------30.03- 73.4 58.6----
2024-02-27 10:36 am-------30.03- 73.2 58.6----
2024-02-27 10:30 am-------30.03- 73.0 58.6----
2024-02-27 10:24 am-------30.03- 72.7 58.6----
2024-02-27 10:18 am-------30.03- 72.9 58.6----
2024-02-27 10:12 am-------30.03- 72.7 58.6----
2024-02-27 10:06 am-------30.02- 72.5 58.6----
2024-02-27 10:00 am-------30.02+0.03 72.3 58.6----
2024-02-27 09:54 am-------30.02- 72.0 58.6----
2024-02-27 09:48 am-------30.01- 72.0 58.6----
2024-02-27 09:42 am-------30.02- 71.8 58.6----
2024-02-27 09:36 am-------30.02- 71.6 58.6----
2024-02-27 09:30 am-------30.02- 71.4 58.6----
2024-02-27 09:24 am-------30.02- 71.4 58.6----
2024-02-27 09:18 am-------30.02- 71.2 58.6----
2024-02-27 09:12 am-------30.02- 71.2 58.6----
2024-02-27 09:06 am-------30.01- 71.2 58.6----
2024-02-27 09:00 am-------30.01+0.04- 58.5----
2024-02-27 08:54 am-------30.01-- 58.5----
2024-02-27 08:48 am-------30.01- 70.9 58.5----
2024-02-27 08:42 am-------30.01- 70.9 58.5----
2024-02-27 08:36 am-------30.01- 70.7 58.5----
2024-02-27 08:30 am-------30.01- 70.5 58.5----
2024-02-27 08:24 am-------30.01- 70.2 58.5----
2024-02-27 08:18 am-------30.01- 70.0 58.5----
2024-02-27 08:12 am-------30.01- 69.6 58.5----
2024-02-27 08:06 am-------30.01- 69.6 58.5----
2024-02-27 08:00 am-------30.01+0.03 69.1 58.5----
2024-02-27 07:54 am-------30.01- 68.7 58.5----
2024-02-27 07:48 am-------30.01- 68.4 58.5----
2024-02-27 07:42 am-------30.00- 67.8 58.5----
2024-02-27 07:36 am-------30.00- 67.8 58.5----
2024-02-27 07:30 am-------30.00- 67.3 58.5----
2024-02-27 07:24 am-------30.00- 67.3 58.5----
2024-02-27 07:18 am-------30.00- 66.9 58.5----
2024-02-27 07:12 am-------29.99- 66.7 58.5----
2024-02-27 07:06 am-------29.99- 66.7 58.5----
2024-02-27 07:00 am-------29.99+0.01 66.6 58.5----
2024-02-27 06:54 am-------29.99- 66.6 58.5----
2024-02-27 06:48 am-------29.99- 66.6 58.5----
2024-02-27 06:42 am-------29.98- 66.4 58.5----
2024-02-27 06:36 am-------29.98- 66.2 58.5----
2024-02-27 06:30 am-------29.98- 66.2 58.5----
2024-02-27 06:24 am-------29.98- 66.0 58.5----
2024-02-27 06:18 am-------29.98- 66.0 58.5----
2024-02-27 06:12 am-------29.98- 66.0 58.5----
2024-02-27 06:06 am-------29.97- 66.2 58.5----
2024-02-27 06:00 am-------29.97-0.01 66.2 58.5----
2024-02-27 05:54 am-------29.97- 66.0 58.5----
2024-02-27 05:48 am-------29.98- 66.4 58.5----
2024-02-27 05:42 am-------29.98- 66.2 58.5----
2024-02-27 05:36 am-------29.98- 66.2 58.5----
2024-02-27 05:30 am-------29.98- 66.0 58.5----
2024-02-27 05:24 am-------29.98- 66.2 58.5----
2024-02-27 05:18 am-------29.98- 66.0 58.5----
2024-02-27 05:12 am-------29.98- 66.2 58.5----
2024-02-27 05:06 am-------29.98- 66.2 58.5----
2024-02-27 05:00 am-------29.98-0.02- 58.5----
2024-02-27 04:54 am-------29.98-- 58.5----
2024-02-27 04:48 am-------29.98- 66.2 58.5----
2024-02-27 04:42 am-------29.97- 66.2 58.5----
2024-02-27 04:36 am-------29.97- 66.2 58.5----
2024-02-27 04:30 am-------29.97- 66.2 58.5----
2024-02-27 04:24 am-------29.97- 66.4 58.5----
2024-02-27 04:18 am-------29.97- 66.0 58.5----
2024-02-27 04:12 am-------29.97- 66.2 58.5----
2024-02-27 04:06 am-------29.97- 66.4 58.5----
2024-02-27 04:00 am-------29.98-0.04 66.0 58.5----
2024-02-27 03:54 am-------29.98- 66.0 58.5----
2024-02-27 03:48 am-------29.98- 66.0 58.5----
2024-02-27 03:42 am-------29.98- 65.8 58.5----
2024-02-27 03:36 am-------29.98- 66.0 58.5----
2024-02-27 03:30 am-------29.99- 65.8 58.5----
2024-02-27 03:24 am-------29.99- 65.8 58.5----
2024-02-27 03:18 am-------29.99- 65.8 58.5----
2024-02-27 03:12 am-------29.99- 65.5 58.5----
2024-02-27 03:06 am-------29.98- 65.7 58.5----
2024-02-27 03:00 am-------29.98-0.04 65.5 58.5----
2024-02-27 02:54 am-------29.98- 65.5 58.5----
2024-02-27 02:48 am-------29.98- 65.1 58.5----
2024-02-27 02:42 am-------29.98- 64.9 58.5----
2024-02-27 02:36 am-------29.99- 63.5 58.5----
2024-02-27 02:30 am-------29.99- 63.9 58.5----
2024-02-27 02:24 am-------29.99- 63.3 58.5----
2024-02-27 02:18 am-------30.00- 63.9 58.5----
2024-02-27 02:12 am-------29.99- 64.8 58.5----
2024-02-27 02:06 am-------30.00- 64.6 58.5----
2024-02-27 02:00 am-------30.00-0.04 64.6 58.5----
2024-02-27 01:54 am-------30.00- 63.9 58.5----
2024-02-27 01:48 am-------30.00- 64.4 58.5----
2024-02-27 01:42 am-------30.00- 65.1 58.5----
2024-02-27 01:36 am-------30.01- 64.9 58.5----
2024-02-27 01:30 am-------30.01- 65.1 58.5----
2024-02-27 01:24 am-------30.01- 64.9 58.5----
2024-02-27 01:18 am-------30.01- 64.9 58.5----
2024-02-27 01:12 am-------30.01- 65.1 58.5----
2024-02-27 01:06 am-------30.01- 65.1 58.5----
2024-02-27 01:00 am-------30.01-0.04 64.9 58.5----
2024-02-27 12:54 am-------30.02- 65.1 58.5----
2024-02-27 12:48 am-------30.02- 65.1 58.5----
2024-02-27 12:42 am-------30.01- 65.1 58.5----
2024-02-27 12:36 am-------30.02- 65.1 58.5----
2024-02-27 12:30 am-------30.02- 64.9 58.5----
2024-02-27 12:24 am-------30.02- 65.1 58.5----
2024-02-27 12:18 am-------30.02- 65.3 58.5----
2024-02-27 12:12 am-------30.02- 65.3 58.5----
2024-02-27 12:06 am-------30.02- 65.1 58.5----
2024-02-27 12:00 am-------30.03-0.03 64.8 58.5----
2024-02-26 11:54 pm-------30.03- 64.6 58.5----
2024-02-26 11:48 pm-------30.03- 64.8 58.5----
2024-02-26 11:42 pm-------30.03- 64.8 58.5----
2024-02-26 11:36 pm-------30.04- 64.6 58.5----
2024-02-26 11:30 pm-------30.04- 64.6 58.5----
2024-02-26 11:24 pm-------30.04- 64.4 58.5----
2024-02-26 11:18 pm-------30.04- 64.6 58.5----
2024-02-26 11:12 pm-------30.04- 64.4 58.5----
2024-02-26 11:06 pm-------30.04- 64.6 58.5----
2024-02-26 11:00 pm-------30.04-0.01 64.4 58.5----
2024-02-26 10:54 pm-------30.04- 64.4 58.5----
2024-02-26 10:48 pm-------30.04- 64.4 58.5----
2024-02-26 10:42 pm-------30.05- 64.6 58.5----
2024-02-26 10:36 pm-------30.05- 64.6 58.5----
2024-02-26 10:30 pm-------30.05- 64.6 58.5----
2024-02-26 10:24 pm-------30.05- 64.6 58.5----
2024-02-26 10:18 pm-------30.05- 64.6 58.5----
2024-02-26 10:12 pm-------30.05- 64.2 58.5----
2024-02-26 10:06 pm-------30.05- 64.4 58.5----
2024-02-26 10:00 pm-------30.05+0.00 64.4 58.5----
2024-02-26 09:54 pm-------30.05- 64.4 58.5----
2024-02-26 09:48 pm-------30.05- 64.2 58.5----
2024-02-26 09:42 pm-------30.05- 64.4 58.5----
2024-02-26 09:36 pm-------30.06- 64.4 58.5----
2024-02-26 09:30 pm-------30.06- 63.9 58.5----
2024-02-26 09:24 pm-------30.05- 64.2 58.5----
2024-02-26 09:18 pm-------30.05- 63.3 58.5----
2024-02-26 09:12 pm-------30.05- 63.0 58.5----
2024-02-26 09:06 pm-------30.05- 63.0 58.5----
2024-02-26 09:00 pm-------30.06+0.01 63.7 58.5----
2024-02-26 08:54 pm-------30.06- 63.9 58.5----
2024-02-26 08:48 pm-------30.05- 64.0 58.5----
2024-02-26 08:42 pm-------30.05- 64.0 58.5----
2024-02-26 08:36 pm-------30.04- 63.7 58.5----
2024-02-26 08:30 pm-------30.04- 63.9 58.5----
2024-02-26 08:24 pm-------30.04- 63.3 58.5----
2024-02-26 08:18 pm-------30.05- 63.5 58.5----
2024-02-26 08:12 pm-------30.05- 63.1 58.5----
2024-02-26 08:06 pm-------30.05- 63.5 58.5----
2024-02-26 08:00 pm-------30.05+0.00- 58.5----
2024-02-26 07:54 pm-------30.05-- 58.5----
2024-02-26 07:48 pm-------30.05-- 58.5----
2024-02-26 07:42 pm-------30.05-- 58.5----
2024-02-26 07:36 pm-------30.05-- 58.5----
2024-02-26 07:30 pm-------30.05- 63.9 58.5----
2024-02-26 07:24 pm-------30.05- 63.9 58.3----
2024-02-26 07:18 pm-------30.05- 64.0 58.3----
2024-02-26 07:12 pm-------30.05- 64.0 58.5----
2024-02-26 07:06 pm-------30.05- 63.9 58.3----
2024-02-26 07:00 pm-------30.05-0.02 64.2-----
2024-02-26 06:54 pm-------30.05- 64.6-----
2024-02-26 06:48 pm-------30.06- 64.9 58.5----
2024-02-26 06:42 pm-------30.06- 64.9 58.5----
2024-02-26 06:36 pm-------30.05- 64.9 58.3----
2024-02-26 06:30 pm-------30.05-------
2024-02-26 06:24 pm-------30.05-------
2024-02-26 06:18 pm-------30.05- 64.9 58.3----
2024-02-26 06:12 pm-------30.05- 64.9 58.3----
2024-02-26 06:06 pm-------30.05- 65.1 58.3----
2024-02-26 06:00 pm-------30.05-0.04 65.5 58.3----
2024-02-26 05:54 pm-------30.04- 65.3 58.3----
2024-02-26 05:48 pm-------30.05- 65.3 58.3----
2024-02-26 05:42 pm-------30.05- 65.3 58.3----
2024-02-26 05:36 pm-------30.05- 65.5 58.5----
2024-02-26 05:30 pm-------30.05-------
2024-02-26 05:24 pm-------30.04-------
2024-02-26 05:18 pm-------30.05- 65.7 58.3----
2024-02-26 05:12 pm-------30.05- 65.8 58.3----
2024-02-26 05:06 pm-------30.05- 65.8 58.3----
2024-02-26 05:00 pm-------30.05-0.05 65.8 58.3----
2024-02-26 04:54 pm-------30.05- 66.2 58.3----
2024-02-26 04:48 pm-------30.06- 66.4 58.3----
2024-02-26 04:42 pm-------30.06- 66.2 58.3----
2024-02-26 04:36 pm-------30.06- 66.2 58.3----
2024-02-26 04:30 pm-------30.06- 66.2 58.3----
2024-02-26 04:24 pm-------30.06- 66.7 58.3----
2024-02-26 04:18 pm-------30.06- 67.1 58.3----
2024-02-26 04:12 pm-------30.06- 67.1 58.3----
2024-02-26 04:06 pm-------30.07- 66.9 58.3----
2024-02-26 04:00 pm-------30.07-0.05 66.9 58.1----
2024-02-26 03:54 pm-------30.06- 67.1 58.3----
2024-02-26 03:48 pm-------30.07- 67.1 58.3----
2024-02-26 03:42 pm-------30.07- 67.8 58.3----
2024-02-26 03:36 pm-------30.06- 67.3 58.3----
2024-02-26 03:30 pm-------30.07- 67.6 58.1----
2024-02-26 03:24 pm-------30.06- 67.3 58.3----
2024-02-26 03:18 pm-------30.07- 67.6 58.1----
2024-02-26 03:12 pm-------30.08- 67.5 58.1----
2024-02-26 03:06 pm-------30.08- 67.6 58.1----
2024-02-26 03:00 pm-------30.09-0.06 67.8 58.1----
2024-02-26 02:54 pm-------30.09- 67.6 58.1----
2024-02-26 02:48 pm-------30.09-- 58.1----
2024-02-26 02:42 pm-------30.08-- 58.1----
2024-02-26 02:36 pm-------30.08-- 58.1----
2024-02-26 02:30 pm-------30.09- 67.6 58.1----
2024-02-26 02:24 pm-------30.09- 67.1 58.1----
2024-02-26 02:18 pm-------30.09- 67.1-----
2024-02-26 02:12 pm-------30.09- 67.5-----
2024-02-26 02:06 pm-------30.10- 67.5-----
2024-02-26 02:00 pm-------30.10-0.07 67.1 57.9----
2024-02-26 01:54 pm-------30.10- 67.6 58.1----